Welcome to the New NWS' Forecast!
Most changes are behind the scenes, but click here for differences you might notice.

Regional Weather Roundup (RWR)

Issued by National Weather Service (NWS)

                            
000
ASUS42 KTBW 180817
RWRFL 
FLORIDA REGIONAL WEATHER ROUNDUP
NATIONAL WEATHER SERVICE TAMPA BAY RUSKIN FL
300 AM EST SUN NOV 18 2018

NOTE: "FAIR" INDICATES FEW OR NO CLOUDS BELOW 12,000 FEET WITH NO
SIGNIFICANT WEATHER AND/OR OBSTRUCTIONS TO VISIBILITY.

FLZ001>010-012>015-112-114-115-180900-
PANHANDLE FLORIDA
  
CITY           SKY/WX    TMP DP  RH WIND       PRES   REMARKS
PENSACOLA      FAIR      50  45  83 N6        30.19S                  
CRESTVIEW      FAIR      41  39  93 CALM      30.21S FOG              
DUKE FIELD     FAIR      42  41  99 CALM      30.19S                  
VALPARAISO     FAIR      45  43  91 CALM      30.18S                  
MARY ESTHER    FAIR      46  43  92 N3        30.18S                  
PANAMA CITY    FAIR      44  42  93 NW5       30.18S WCI  42          
TYNDALL AFB    FAIR      47  45  94 CALM      30.20S                  
APALACHICOLA   FAIR      44  40  85 NE3       30.17F                  

STATION/POSITION SKY/WX   TEMP    WIND        PRES    WAVE   SWELL
                          AIR SEA DIR/SP/G            HT/PER HT/PER
                          (F)     (DEG/KT/KT) (MB)    (FT/S) (FT/S)
30.1N   87.6W              61                 1022.6
29.2N   88.2W                 71   20/  6/ 10 1022.4
PANAMA CITY BEAC           52 69   40/  5/  6 1022.5R
TOWER C                    63      40/ 11/ 14 1021.2F

$$
FLZ011-016>038-118-127-128-134-139-239-180900-
NORTH FLORIDA
  
CITY           SKY/WX    TMP DP  RH WIND       PRES   REMARKS
MARIANNA       FAIR      46  45  96 CALM      30.18F FOG              
TALLAHASSEE    FAIR      41  40  96 CALM      30.18S                  
PERRY          FAIR      43  42  97 CALM      30.18F                  
LIVE OAK       CLEAR     43  45 100 CALM      30.17F FOG              
CROSS CITY     FAIR      43  42  96 NE3       30.16F                  
LAKE CITY      FAIR      50  48  93 NE5       30.17F                  
GAINESVILLE    FAIR      51  49  92 CALM      30.18S                  
WILLISTON        N/A    N/A N/A N/A MISG        N/A                   
MAYPORT NAS    MOCLDY    59  58  96 NW5       30.16S                  
JACKSONVILLE   MOCLDY    56  54  93 CALM      30.16S                  
JAX NAS        FAIR      59  58  96 NW9       30.16F                  
JAX CECIL      FAIR      52  52 100 N3        30.17R FOG              
FERNANDINA BEA MOCLDY    60  59  97 N7        30.16S                  
ST AUGUSTINE   FAIR      59  57  93 NW8       30.16S                  
PALM COAST     FAIR      62  60  94 N5        30.13F                  

STATION/POSITION SKY/WX   TEMP    WIND        PRES    WAVE   SWELL
                          AIR SEA DIR/SP/G            HT/PER HT/PER
                          (F)     (DEG/KT/KT) (MB)    (FT/S) (FT/S)
SHELL POINT      NOT AVBL
KEATON BEACH               50      40/  4/  5 1021.5F
CEDAR KEY                  56      40/  8/  9 1021.0F
FERNANDINA                 62 66  350/  6/ 10 1022.2F
30.7N   81.3W                 68                N/A     4/10   2/11
MAYPORT                    59 68  320/  4/  5 1021.4F
31.4N   80.9W              67 69   20/ 16/ 17 1020.9F   4/ 5   2/ 9
ST AUGUSTINE               63 69  330/  9/ 10 1020.8F

$$
FLZ040-043>046-052-053-057-058-063-144-180900-
INTERIOR CENTRAL FLORIDA
  
CITY           SKY/WX    TMP DP  RH WIND       PRES   REMARKS
OCALA          FAIR      54  53  97 N5        30.16S                  
LEESBURG       FAIR      58  57  97 N6        30.14F                  
SANFORD        FAIR      62  61  96 N8        30.11F                  
ORLANDO EXEC   FAIR      60  59  96 N5        30.11F                  
ORLANDO INTL   FAIR      59  58  96 N3        30.11F                  
KISSIMMEE      FAIR      61  59  93 N3        30.12F                  
WINTER HAVEN   FAIR      61  59  93 N6        30.12F                  
LAKELAND       FAIR      57  55  94 NW5       30.13S                  
BARTOW         FAIR      61  61 100 N6        30.10F                  
SEBRING        FAIR      60  57  92 N3        30.10S                  
OKEECHOBEE     FAIR      55  55 100 N3        30.08F                  

$$
FLZ041-047-054-059-064-141-147-180900-
EAST CENTRAL FLORIDA
  
CITY           SKY/WX    TMP DP  RH WIND       PRES   REMARKS
DAYTONA BEACH  FAIR      60  60 100 NW5       30.12F                  
DELAND         FAIR      61  59  94 N8        30.12F                  
JFK SPACE CTR  FAIR      60  58  93 NW3         N/A                   
CAPE CANAVERAL FAIR      61  58  92 NW6       30.09S                  
PATRICK AFB    FAIR      73  57  56 CALM      30.09F                  
MELBOURNE      FAIR      58  56  93 NW7       30.09F                  
VERO BEACH     FAIR      58  56  93 W6        30.09R                  
FT PIERCE      FAIR      58  56  93 NW3       30.08R                  
STUART         FAIR      72  55  56 E5        30.09R                  

STATION/POSITION SKY/WX   TEMP    WIND        PRES    WAVE   SWELL
                          AIR SEA DIR/SP/G            HT/PER HT/PER
                          (F)     (DEG/KT/KT) (MB)    (FT/S) (FT/S)
28.5N   80.2W              76     100/ 10/ 14 1019.4
28.9N   78.5W              75 81   60/ 14/ 19 1020.2R
TRIDENT PIER               64 77  330/  4/  5 1020.6F
28.4N   80.5W                 76                N/A     3/11   2/11
27.5N   80.2W                 77                N/A     3/ 9   2/11

$$
FLZ050-056-061-142-242-148-248-149-249-151-251-155-255-
160-260-180900-
WEST CENTRAL FLORIDA
  
CITY           SKY/WX    TMP DP  RH WIND       PRES   REMARKS
CRYSTAL RIVER  FAIR      52  52 100 CALM      30.14F                  
BROOKSVILLE    FAIR      56  55  97 N5        30.15S                  
CLEARWATER AIR FAIR      59  55  88 NE5       30.13R                  
ST PETE CLEARW FAIR      62  61  96 NE7       30.12F                  
TAMPA INTL     FAIR      60  57  89 NE7       30.13S                  
TAMPA EXEC     FOG       55  54  94 CALM      30.14S VSB 1            
PLANT CITY     FAIR      59  57  94 CALM      30.14S                  
MACDILL AFB    FAIR      59  57  92 E9          N/A                   
PETER O KNIGHT FAIR     N/A N/A N/A NE7       30.12F                  
ST PETERSBURG  FAIR      63  61  93 N7        30.10F                  
SARASOTA       FAIR      60  58  92 NE7       30.08F                  
VENICE         CLOUDY    63  59  88 NE9       30.10S                  

STATION/POSITION SKY/WX   TEMP    WIND        PRES    WAVE   SWELL
                          AIR SEA DIR/SP/G            HT/PER HT/PER
                          (F)     (DEG/KT/KT) (MB)    (FT/S) (FT/S)
CLEARWATER BEACH              72   50/  8/ 10 1020.1F
MIDDLE TAMPA BAY           65      70/ 13/ 14 1019.8F
VENICE                     63 74   60/  7/ 11 1019.0F

$$
FLZ066-069-070-075>078-162-262-165-265-180900-
SOUTHWEST FLORIDA AND KEYS
  
CITY           SKY/WX    TMP DP  RH WIND       PRES   REMARKS
PUNTA GORDA    MOCLDY    59  56  89 NE5       30.11S                  
FT MYERS       MOCLDY    63  58  83 NE6       30.07F                  
SOUTHWEST INTL MOCLDY    63  56  78 NE5       30.08S                  
NAPLES         CLOUDY    67  58  72 NE7       30.06S                  
MARCO ISLAND   CLOUDY    66  62  87 N7        30.07S                  
IMMOKALEE      CLOUDY    63  57  82 N5        30.07F                  
MARATHON       CLOUDY    77  67  71 E9        30.02R                  
KEY WEST NAS   CLOUDY    76  68  76 NE8       30.02S                  
KEY WEST INTL  MOCLDY    76  68  76 NE7       30.02S                  

STATION/POSITION SKY/WX   TEMP    WIND        PRES    WAVE   SWELL
                          AIR SEA DIR/SP/G            HT/PER HT/PER
                          (F)     (DEG/KT/KT) (MB)    (FT/S) (FT/S)
NAPLES                     68 75   60/  4/  8 1017.8F
26.0N   85.6W              71 79   40/  8/ 12 1018.8
DRY TORTUGAS               77      70/ 15/ 17 1016.7F
SAND KEY                   76                 1016.2F
SOMBRERO KEY               79                 1015.6S
LONG KEY                   77 75   80/ 11/ 13 1016.5R
MOLASSES REEF                      80/ 18       N/A

$$
FLZ067-068-071>074-168-172>174-180900-
SOUTHEAST FLORIDA 
  
CITY           SKY/WX    TMP DP  RH WIND       PRES   REMARKS
W PALM BEACH   MOCLDY    73  62  68 E9        30.06S                  
FT LAUDER-EXEC FAIR      74  64  71 E10       30.05R                  
FT LAUDERDALE  FAIR      74  65  73 E14       30.04S                  
POMPANO BEACH  MOCLDY    76  62  62 E9        30.05S                  
PEMBROKE PINES FAIR      75  63  66 E8        30.06S                  
OPA LOCKA      FAIR      72  64  76 E5        30.05F                  
MIAMI          FAIR      73  63  70 NE5       30.05S                  
WEST KENDALL   FAIR      73  63  70 NE6       30.04S                  
HOMESTEAD      CLOUDY    75  66  74 NE9       30.02F                  

STATION/POSITION SKY/WX   TEMP    WIND        PRES    WAVE   SWELL
                          AIR SEA DIR/SP/G            HT/PER HT/PER
                          (F)     (DEG/KT/KT) (MB)    (FT/S) (FT/S)
PORT EVERGLADES            76      80/  9/ 15 1017.6R
VIRGINIA KEY               77 78   60/ 13/ 15 1016.8F
LAKE WORTH                 76 80  100/ 10/ 13 1019.0R
FOWEY ROCKS                77 80   70/ 16/ 17 1017.5F
SETTLEMENT POINT           76      80/ 13/ 15 1017.8S

$$